Regional Weather Roundup
Issued by NWS

Home | Current Version | Previous Version | Text Only | Print | Product List | Glossary On
Versions: 1 2 3 4 5 6 7 8 9 10 11 12 13 14 15 16 17 18 19 20 21 22 23 24 25 26 27 28 29 30 31 32 33 34 35 36 37 38 39 40 41 42 43 44 45 46 47 48 49 50
000
ASUS43 KMPX 230801
RWRMN
WEATHER ROUNDUP FOR MINNESOTA
NATIONAL WEATHER SERVICE TWIN CITIES/CHANHASSEN MN
200 AM CST THU FEB 23 2017


NOTE: "FAIR" INDICATES FEW OR NO CLOUDS BELOW 12,000 FEET WITH NO
SIGNIFICANT WEATHER AND/OR OBSTRUCTIONS TO VISIBILITY. N/A MEANS
CURRENT SKY AND/OR WEATHER CONDITIONS ARE NOT AVAILABLE.

MNZ060>063-068>070-230900-
   Twin Cities Metro

CITY           SKY/WX    TMP DP  RH WIND       PRES   REMARKS
TWIN CITIES    CLOUDY    37  30  75 N15G23    29.85R
ST PAUL        CLOUDY    37  33  85 N15       29.86R
CRYSTAL        CLOUDY    36  28  73 N9        29.85R
BLAINE         CLOUDY    37  32  81 NW10      29.85R
LAKEVILLE      CLOUDY    36  32  87 NW10G16   29.84R
EDEN PRAIRIE   CLOUDY    37  30  75 N12       29.84R
SOUTH ST PAUL  CLOUDY    37  32  84 N12G17    29.84R
LAKE ELMO      CLOUDY    36  32  87 NW7       29.86R
$$
MNZ001>005-007-008-013>017-022>024-027-028-230900-
   Northwest Minnesota

CITY           SKY/WX    TMP DP  RH WIND       PRES   REMARKS
BEMIDJI        MOCLDY    26  21  82 N12       29.91S WCI  15
HALLOCK        CLOUDY    28  23  80 N7        30.00R WCI  21
ROSEAU         MOCLDY    27  19  74 N14       29.97R WCI  15
WARROAD        CLOUDY    27  18  69 NW9G20    29.96R WCI  17
THIEF RVR FALL   N/A     23  21  92 MISG        N/A
CROOKSTON      PTCLDY    27  25  93 N7        29.99R WCI  19
FOSSTON        CLEAR     25  21  86 N10       29.95R WCI  15
DETROIT LAKES  CLEAR     28  27  93 N7        29.92F WCI  21
MOORHEAD       CLEAR     28  25  86 N13       29.96F WCI  18
PARK RAPIDS    CLEAR     23  18  81 N7        29.89S WCI  15
MAHNOMEN       FAIR      28  25  89 N10       29.94R WCI  18
$$
MNZ006-009>011-018-025>026-230900-
   North Central Minnesota

CITY           SKY/WX    TMP DP  RH WIND       PRES   REMARKS
BAUDETTE       CLOUDY    26  17  68 N12G21    29.92R WCI  16
FLAG ISLAND    CLOUDY    25  16  68 NW23      29.95R WCI  10
INTL FALLS     CLOUDY    26  18  71 NW15      29.90R WCI  14
WASKISH        MOCLDY    25  19  80 NW5       29.94R WCI  19
BIG FORK       CLEAR     25  19  80 NW5       29.89R WCI  19
LONGVILLE      CLEAR     25  23  93 NW5       29.90R WCI  19
GRAND RAPIDS   CLEAR     23  22  96 NW12      29.90R WCI  12
CRANE LAKE     CLOUDY    28  23  80 CALM      29.87R
ORR            CLOUDY    27  21  80 NW7       29.84R WCI  19
COOK           CLOUDY    25  23  93 W3        29.86R
WALKER         CLOUDY    26  22  82 N12G18    29.91R WCI  16
$$
MNZ012-019>021-037-230900-
   Northeast Minnesota

CITY           SKY/WX    TMP DP  RH WIND       PRES   REMARKS
DULUTH         CLOUDY    30  27  88 N9        29.81R WCI  22
ELY            CLOUDY    28  25  86 NW7       29.82R WCI  21
HIBBING        CLEAR     25  24  96 NW15      29.84R WCI  13
EVELETH        CLEAR     28  23  83 N5        29.85R WCI  22
DULUTH HARBOR  CLOUDY    34  30  86 N15       29.85R WCI  24
TWO HARBORS    CLOUDY    34  28  80 N6        29.79R WCI  29
SILVER BAY     CLOUDY    32  28  86 NW6       29.79R WCI  26
GRAND MARAIS     N/A     34  25  69 CALM      29.79R
G MARAIS ARPRT CLOUDY    27  19  74 N15G21    29.74R WCI  15
$$
MNZ029>031-032-039>041-046>048-054>057-064-230900-
   West Central Minnesota

CITY           SKY/WX    TMP DP  RH WIND       PRES   REMARKS
FERGUS FALLS   CLEAR     28  27  93 N5        29.98R WCI  23
WHEATON        CLEAR     28  27  93 NW5       29.99R WCI  23
MORRIS         CLEAR     30  28  93 NW8       29.93R WCI  23
ALEXANDRIA     CLEAR     29  25  85 N7        29.91R WCI  22
ELBOW LAKE     FAIR      29  27  90 NW7       29.95R WCI  22
WADENA         CLEAR     27  25  93 N7        29.89F WCI  19
GLENWOOD       CLEAR     28  25  86 N8        29.91R WCI  20
APPLETON       PTCLDY    32  28  86 NW7       29.95R WCI  26
BENSON         CLEAR     30  25  80 N6        29.95R WCI  24
ORTONVILLE       N/A     30  27  86 CALM      29.96R
MADISON        MOCLDY    36  30  80 N8        29.95R
WILLMAR        FAIR      32  28  86 N9        29.92R WCI  24
$$
MNZ033>034-036-042>043-049>051-058-059-230900-
   Central Minnesota

CITY           SKY/WX    TMP DP  RH WIND       PRES   REMARKS
ST CLOUD       CLEAR     31  27  85 N8        29.89R WCI  23
SAUK CENTRE    FAIR      29  24  82 N7        29.91R WCI  22
AITKIN         CLEAR     28  25  86 NW6       29.87R WCI  22
PINE RIVER     CLEAR     27  23  86 N8        29.93R WCI  18
STAPLES        CLEAR     27  25  93 N9        29.89F WCI  17
LONG PRAIRIE   FAIR      28  25  86 NW9       29.90R WCI  20
LITTLE FALLS   CLEAR     30  25  80 NW6       29.89R WCI  24
LITCHFIELD     CLOUDY    34  28  80 N10       29.91R WCI  26
BUFFALO        CLOUDY    34  29  82 NW12      29.89R WCI  25
MAPLE LAKE     CLOUDY    33  30  86 NW10G20   29.90R WCI  25
HUTCHINSON     CLOUDY    34  30  86 N15       29.90R WCI  24
$$
MNZ037-044-045-052-053-230900-
   East Central Minnesota

CITY           SKY/WX    TMP DP  RH WIND       PRES   REMARKS
PRINCETON      PTCLDY    34  28  80 N9G16     29.88R WCI  26
MORA           MOCLDY    32  28  86 N8        29.87R WCI  25
CAMBRIDGE      CLOUDY    36  27  69 NW6       29.84R
RUSH CITY      CLOUDY    34  30  86 N12       29.85R WCI  25
MOOSE LAKE     PTCLDY    32  28  86 N8        29.84R WCI  25
HINCKLEY       PTSUNNY   32  30  93 N12       29.84R WCI  23
CLOQUET        CLOUDY    30  27  86 NW8       29.84R WCI  23
MCGREGOR       CLEAR     28  27  93 NW7       29.87R WCI  21
$$
MNZ071>073-080-081-089-090-097-098-230900-
   Southwest Minnesota

CITY           SKY/WX    TMP DP  RH WIND       PRES   REMARKS
MONTEVIDEO     MOCLDY    32  30  93 N9        29.95R WCI  24
GRANITE FALLS  CLOUDY    35  32  88 NW12      29.94R WCI  26
CANBY          CLOUDY    33  29  85 N10       29.94S WCI  25
MARSHALL       CLOUDY    32  29  88 N16       29.91S WCI  21
REDWOOD FALLS  CLOUDY    35  30  82 N12       29.88S WCI  27
OLIVIA         CLOUDY    34  30  86 N13       29.89F WCI  25
PIPESTONE      CLOUDY    32  27  80 N17       29.87S WCI  21
WINDOM         CLOUDY    34  32  93 NW17      29.86R WCI  23
WORTHINGTON    CLOUDY    31  30  96 N25       29.83F FOG     WCI  17
JACKSON          N/A     34  32  93 N12G21    29.84S WCI  25
TRACY          CLOUDY    33  31  96 N15       29.89S WCI  22
SLAYTON        CLOUDY    30  29  96 N18       29.87S WCI  18
$$
MNZ065>067-074>077-082>085-091>093-230900-
   South Central Minnesota

CITY           SKY/WX    TMP DP  RH WIND       PRES   REMARKS
MANKATO          N/A     36  32  85 N16       29.84F
NEW ULM        CLOUDY    36  30  80 N9G17     29.85F
ST JAMES       CLOUDY    36  32  87 N14G22    29.87R
FAIRMONT       CLOUDY    35  32  88 N15G28    29.84R WCI  25
GLENCOE        CLOUDY    36  33  90 NW12      29.87R
FARIBAULT      CLOUDY    36  32  87 NW12      29.83S
OWATONNA       CLOUDY    36  32  87 N14G22    29.82S
WASECA         CLOUDY    36  34  93 NW16      29.85R
ALBERT LEA     CLOUDY    37  34  87 N18       29.81R
$$
MNZ078>079-086>088-094>096-230900-
   Southeast Minnesota

CITY           SKY/WX    TMP DP  RH WIND       PRES   REMARKS
ROCHESTER      CLOUDY    38  36  92 NW16      29.78R
RED WING       CLOUDY    37  32  81 N9        29.82R
STANTON        CLOUDY    37  33  82 N10       29.83R
DODGE CENTER   CLOUDY    36  34  93 N16G25    29.80R
WINONA         CLOUDY    41  34  75 NW14G23   29.78R
AUSTIN         CLOUDY    37  34  87 NW12G18   29.79S
PRESTON        CLOUDY    39  35  84 N16       29.76S
$$
ABBREVIATIONS USED IN REMARKS
   TC - TEMPERATURES IN CELSIUS
  WCI - WIND CHILL INDEX
   HX - HEAT INDEX
  VSB - VISIBILITY
$$



USA.gov is the U.S. government's official web portal to all federal, state and local government web resources and services.